Powrót do katalogu

CZ-6A DEB

AktywnySSO
NORAD 54953·DEBRIS·🇨🇳 China

Wystrzelony Nov 11, 2022 z Taiyuan Satellite Launch Center

Loading…

Następne Przeloty (najbliższe 24 godziny)

TLE

ŚwieżeSource: Space-Track

Epoka: Sep 14, 2026, 14:24 UTC

1 54953U 22151SS  26257.60007972  .00002466  00000-0  55230-3 0  9996
2 54953  98.5398 305.2047 0078494   3.4554 356.7168 14.55718334202656

Śledź CZ-6A DEB w czasie rzeczywistym z AllMySat

Download on the App Store